GFSSE_700_spd_021.txt.gz
Wind_Speed
27 27 30 35 31 29 29 30 28 27 25 23 21 18 15 14 14 14 14 15 13 13 12 13 14 13 13 12 11 9 10 12 9 9 9 8 10 10 10 9 8 11 11
31 34 37 33 30 29 29 27 26 25 21 20 19 15 14 13 13 12 14 13 12 10 11 12 13 13 14 13 12 8 8 11 10 9 11 11 14 14 10 11 12 12 13
30 36 33 29 29 29 27 26 24 22 21 19 16 14 13 12 12 13 12 11 10 9 11 12 13 12 12 13 10 9 7 9 13 7 6 12 13 14 12 14 15 13 12
31 30 28 29 28 27 25 23 22 21 19 17 15 13 11 11 12 12 10 9 9 10 12 12 11 12 11 11 11 9 7 7 10 14 11 13 14 11 11 12 12 13 13
30 29 28 27 26 24 23 22 21 19 18 16 14 12 11 11 11 10 9 9 9 11 12 13 13 13 12 12 11 9 9 8 8 12 13 14 13 10 10 9 11 12 13
28 27 25 25 24 23 22 22 21 19 16 15 13 12 11 10 9 8 9 9 11 12 12 12 12 11 12 12 12 11 10 7 7 10 14 14 11 9 8 9 11 10 10
27 25 23 22 22 22 21 20 19 18 16 14 13 12 10 8 8 8 9 10 11 12 12 11 11 10 11 11 11 13 13 8 6 5 11 12 10 7 7 8 10 8 6
22 23 21 22 21 20 20 19 19 17 16 14 12 10 8 7 8 10 11 12 12 11 10 9 10 9 9 9 11 11 12 8 6 10 5 8 9 6 6 7 5 6 7
20 20 21 20 20 20 19 18 18 16 15 13 10 8 7 7 7 9 9 10 10 9 10 9 9 8 7 7 8 10 10 11 7 7 4 10 7 5 4 5 5 5 6
20 19 20 20 19 18 18 17 16 15 13 11 8 6 4 5 6 8 7 7 8 9 8 9 8 7 8 8 8 8 8 10 15 7 4 8 6 7 5 3 2 4 4
21 19 19 19 19 18 17 15 14 12 10 9 7 5 5 5 4 7 6 4 6 6 6 7 7 8 8 10 9 8 7 8 10 11 4 7 5 5 5 4 2 1 2
21 22 20 19 18 17 15 14 12 10 9 7 4 2 3 3 1 4 6 6 6 5 6 6 6 4 7 6 8 13 13 10 7 13 4 2 4 4 3 3 2 3 2
24 23 22 20 18 16 15 13 11 9 8 6 5 3 5 0 3 4 5 6 6 6 6 5 5 9 9 10 13 10 10 14 9 8 7 1 4 3 3 2 2 2 3
16 19 21 18 17 16 15 13 10 9 6 6 8 5 1 3 2 4 5 4 5 3 6 7 7 11 12 14 14 11 7 15 16 9 7 0 2 2 2 3 3 2 3
11 13 18 17 15 15 14 11 10 11 11 7 9 2 2 3 5 5 5 5 6 7 6 9 10 11 12 12 14 11 9 8 11 10 5 2 5 4 3 3 3 5 3
10 13 15 14 13 11 8 7 6 8 3 3 2 3 6 4 3 4 6 7 7 9 8 8 10 11 11 13 14 14 13 11 6 7 6 1 3 5 5 5 5 5 6
11 12 16 14 12 10 9 6 6 7 8 8 6 5 5 6 4 4 5 9 10 9 9 9 9 12 13 13 17 15 14 10 6 6 7 3 1 5 8 9 7 6 6
15 12 11 12 11 11 9 8 8 7 7 11 8 8 6 6 6 8 9 9 13 8 12 11 12 14 15 18 18 14 9 8 6 8 2 3 1 3 6 9 10 10 9
17 12 11 11 10 9 11 10 10 10 10 12 11 10 5 3 6 6 9 10 11 11 12 13 15 13 15 16 14 14 10 7 8 7 7 5 2 0 1 7 9 11 12
22 16 13 11 11 13 13 13 13 13 11 13 9 6 11 10 8 6 11 8 8 11 12 13 14 14 15 14 10 8 2 9 9 3 1 10 6 4 5 5 4 7 7
23 19 16 16 13 12 12 11 10 11 10 10 8 11 15 10 11 7 10 9 10 9 9 6 10 11 12 12 6 4 3 7 7 5 12 16 11 10 11 4 6 3 5
23 20 18 18 18 14 10 10 11 12 12 12 13 16 7 10 10 10 9 8 7 6 8 11 12 13 11 7 3 1 1 3 3 3 6 9 10 8 9 6 6 6 7
26 22 19 18 19 17 13 13 13 15 14 13 12 8 8 9 7 7 6 2 4 7 7 8 10 13 13 12 6 2 2 5 6 8 7 8 9 8 7 7 9 7 8
31 26 22 20 19 18 17 15 16 14 14 13 11 8 5 4 4 3 3 4 2 3 5 6 7 11 13 13 10 6 3 5 8 8 10 11 11 7 6 4 6 10 7
22 22 24 22 22 21 20 17 18 15 14 14 13 9 7 7 6 6 4 4 2 3 3 5 7 9 12 13 14 11 4 7 12 14 15 9 13 12 8 8 7 8 8
21 22 20 24 24 23 21 19 17 14 13 14 13 10 12 12 11 8 7 6 3 1 4 5 7 10 12 15 15 15 12 8 10 14 16 18 17 16 16 15 13 11 11

GFSSE_700_spd_024.txt.gz
Wind_Speed
24 27 34 37 36 32 32 30 29 28 27 24 21 17 15 13 14 15 15 14 13 13 12 12 13 13 12 11 11 11 15 14 12 13 9 6 6 10 8 8 10 13 13
28 35 34 33 32 31 30 28 28 27 24 21 18 16 13 13 14 14 13 12 12 12 11 12 13 13 13 14 10 9 12 15 9 7 10 11 12 10 7 10 10 10 11
33 35 31 31 30 30 28 28 27 23 22 19 16 14 13 13 13 13 12 12 12 11 11 12 12 13 13 13 11 9 9 13 12 8 8 11 13 11 12 12 11 12 11
35 32 30 29 29 27 26 24 23 22 20 17 15 13 13 13 13 13 13 12 12 11 11 12 13 13 13 12 12 11 10 9 13 10 8 10 14 13 12 10 11 12 12
30 30 30 28 26 25 23 22 22 20 17 15 14 13 13 12 12 12 11 11 12 12 12 13 14 15 16 14 12 12 8 8 10 13 9 11 13 11 11 10 10 11 11
28 28 27 26 24 24 23 21 20 18 16 15 14 13 12 12 10 9 10 11 12 12 11 12 13 14 14 11 12 13 8 4 11 11 11 9 12 11 9 8 9 9 8
27 26 25 23 23 22 21 21 19 17 16 14 13 12 11 10 8 10 10 11 11 12 12 12 11 12 13 11 11 11 10 9 9 7 8 9 10 9 8 8 6 6 4
23 24 23 22 21 21 20 19 18 17 15 13 12 10 10 9 10 10 9 9 10 12 11 11 11 11 10 10 11 11 9 8 7 6 4 7 9 9 7 6 4 4 5
22 21 22 21 21 20 19 18 17 16 14 12 10 8 8 8 8 8 8 9 9 11 12 10 10 7 7 8 7 7 10 9 8 8 6 4 7 9 8 6 4 4 6
22 21 20 20 19 19 19 18 16 15 13 10 8 7 7 6 6 6 7 8 8 9 9 8 9 8 8 6 10 8 8 6 9 1 4 3 5 7 8 6 5 4 3
23 21 20 19 18 18 17 17 15 13 11 9 7 6 6 8 7 6 6 6 6 7 6 7 7 5 8 6 5 9 5 6 7 5 5 3 4 6 8 6 3 4 4
23 22 20 19 18 17 17 15 13 12 10 8 6 4 6 1 3 4 3 3 5 5 4 4 5 3 4 7 8 7 4 6 1 2 4 2 3 5 6 7 5 3 4
21 22 21 19 17 16 15 14 13 12 10 7 5 6 4 4 7 3 4 1 3 3 2 1 3 4 3 4 7 9 8 9 7 2 3 4 4 5 5 5 5 5 4
20 20 20 20 18 16 16 15 14 11 9 8 5 4 5 4 2 2 1 2 2 2 3 1 0 3 6 9 10 9 7 8 9 5 4 6 6 6 6 5 4 4 3
15 19 20 19 18 17 16 14 13 11 9 8 8 8 7 4 1 2 2 4 2 2 4 3 4 6 8 9 10 4 9 9 7 5 5 6 7 6 5 6 6 5 6
17 20 18 18 18 15 14 14 11 10 10 7 11 8 7 3 2 2 3 5 6 7 6 7 7 9 10 9 12 9 6 7 3 4 4 3 5 6 7 6 6 7 8
14 15 20 17 16 15 13 13 9 9 9 7 9 6 4 2 3 2 6 7 8 10 5 8 7 10 10 13 12 10 7 4 4 4 3 3 5 7 8 8 7 8 8
13 13 17 17 15 14 11 10 8 7 7 5 4 5 3 5 5 6 7 8 10 11 7 7 8 9 9 14 12 8 7 5 7 4 1 2 4 5 7 8 10 9 8
12 13 15 15 13 12 10 10 10 8 7 7 6 6 5 6 4 8 7 8 9 10 9 9 8 9 10 11 11 5 4 6 3 3 4 3 2 3 2 5 7 9 12
15 14 13 15 15 12 11 12 13 12 10 9 9 8 8 8 9 9 9 8 10 8 9 8 9 10 11 11 9 3 4 3 2 4 4 6 4 4 2 5 6 7 8
21 18 18 17 14 14 13 11 11 10 10 10 7 11 10 11 11 10 10 8 6 6 6 9 11 13 11 11 7 2 2 2 5 7 7 10 7 2 1 2 2 3 6
20 19 19 18 17 14 13 13 13 12 12 13 13 13 14 12 9 10 6 4 4 6 6 8 12 13 14 13 9 6 1 2 2 2 4 9 10 6 2 2 3 3 4
23 21 18 18 18 16 15 16 16 16 14 13 12 11 10 9 7 6 1 4 6 5 5 8 11 13 15 16 15 10 6 3 5 7 5 8 12 9 6 3 3 4 6
27 23 23 21 20 18 18 18 16 15 13 11 11 7 7 8 5 4 7 6 5 5 5 6 9 13 17 21 20 17 13 10 9 6 5 12 11 7 6 7 5 5 7
21 25 24 23 22 22 21 19 16 16 14 13 13 10 9 7 10 10 9 6 6 5 4 5 8 11 18 23 21 23 28 18 12 11 11 12 14 11 9 7 9 7 6
16 18 18 18 25 25 24 21 17 15 15 13 12 10 9 12 14 13 10 8 6 4 2 3 5 10 13 19 20 22 28 21 16 12 12 13 14 14 13 14 11 7 9

GFSSE_700_spd_030.txt.gz
Wind_Speed
21 25 30 31 32 31 30 28 30 27 23 20 17 15 15 15 14 13 13 12 13 13 14 15 14 11 10 9 13 15 12 11 12 11 7 6 6 8 11 14 13 9 7
27 31 34 32 31 30 30 29 28 25 21 18 15 13 14 13 12 12 12 12 13 13 14 14 14 11 10 10 11 15 19 14 13 12 12 11 9 9 9 11 11 9 8
32 35 32 30 31 30 31 29 25 22 19 17 14 13 13 13 12 11 11 12 12 13 14 14 12 11 11 11 12 14 16 16 14 13 12 9 11 11 11 11 10 8 7
30 33 31 30 30 30 29 26 23 20 17 14 14 13 13 12 11 10 10 11 13 13 13 14 12 11 11 12 11 12 13 16 15 13 12 12 13 12 12 12 10 9 8
32 31 31 29 29 28 26 24 21 17 15 13 14 12 12 11 10 10 10 11 12 12 12 12 13 13 15 12 10 11 12 13 15 12 11 9 11 11 12 11 10 8 7
31 31 29 27 26 25 23 22 18 15 14 13 13 12 10 9 10 10 10 11 10 10 11 12 13 14 13 12 11 9 8 9 11 12 9 8 8 12 12 11 12 11 9
28 29 27 25 24 23 22 20 17 15 13 13 11 10 9 10 10 10 10 9 9 9 9 10 11 12 12 12 11 8 6 9 9 12 9 8 7 11 12 12 9 8 8
26 26 26 25 23 22 21 19 17 15 13 12 10 10 10 10 10 10 9 9 8 8 8 8 9 8 8 9 9 7 5 6 5 7 9 8 7 8 9 9 8 7 7
24 22 23 24 24 22 21 19 17 14 12 11 9 9 9 8 8 10 9 8 7 6 7 6 7 7 8 7 8 5 5 5 2 6 8 8 7 7 7 7 7 7 7
23 22 21 22 22 21 20 19 16 13 12 10 8 7 7 7 7 8 7 6 5 5 6 6 6 6 7 7 8 5 5 9 8 7 8 7 7 6 6 6 7 7 6
24 22 21 20 20 20 20 18 16 13 11 9 8 7 8 5 5 6 5 4 4 4 5 6 5 9 8 8 7 6 4 6 6 6 6 6 7 5 5 6 6 6 6
25 23 22 21 20 19 18 17 14 12 10 9 7 6 5 3 4 4 4 5 5 5 6 7 7 10 9 10 9 4 3 1 4 4 5 6 7 6 5 5 6 6 5
22 23 22 21 20 18 17 15 13 12 10 8 7 5 2 4 3 4 2 3 4 4 6 6 7 8 10 12 11 4 1 2 2 7 6 6 7 6 5 5 6 6 5
21 22 22 21 20 18 17 15 13 11 9 8 6 5 4 4 1 1 2 3 4 5 5 4 5 7 9 10 11 7 5 1 2 5 8 8 7 6 6 6 7 8 8
21 21 21 20 19 18 16 15 14 12 10 9 6 6 5 4 2 4 1 3 4 6 7 6 4 5 7 8 7 8 6 1 4 5 7 9 7 7 8 7 6 7 7
20 20 20 19 19 17 16 14 13 12 12 9 8 7 4 4 3 2 1 2 5 7 9 6 7 8 6 9 11 9 5 1 3 4 7 10 9 8 8 8 9 7 6
19 19 18 18 18 17 16 15 13 12 11 10 7 10 6 6 5 3 1 4 6 7 7 7 9 11 11 11 12 10 4 2 4 3 6 9 9 10 9 8 8 10 11
22 21 20 20 18 17 16 15 13 11 10 11 9 9 8 6 5 4 2 2 6 7 7 8 9 10 10 9 7 7 6 4 2 2 6 7 9 8 9 10 9 9 9
19 20 21 20 18 17 16 15 14 12 10 11 10 8 8 6 8 5 3 3 5 8 8 8 7 8 7 8 6 4 3 6 1 3 5 4 6 9 10 10 10 11 11
21 19 18 19 19 18 17 16 15 13 11 9 8 9 9 7 10 6 4 4 4 5 5 7 9 11 9 10 9 5 5 3 4 4 5 5 3 3 8 8 9 11 10
24 21 19 20 20 19 17 16 13 9 9 10 9 8 10 11 12 9 5 4 2 4 7 9 12 15 18 20 18 14 10 9 3 4 4 5 6 3 1 3 5 8 10
25 23 22 21 21 18 17 14 12 11 12 12 12 12 11 10 12 12 10 4 4 9 10 12 13 16 19 20 20 17 11 9 6 2 5 3 8 6 4 3 4 5 5
28 26 23 21 20 19 17 17 15 15 13 12 12 10 9 9 12 12 9 7 11 11 12 13 16 17 19 23 24 22 14 7 6 7 4 7 7 8 8 5 4 4 5
25 26 25 25 24 22 21 19 17 14 12 9 8 10 11 12 9 12 11 14 13 14 13 14 16 17 17 20 23 24 17 6 4 5 5 7 9 9 7 8 9 8 5
22 28 27 27 26 25 22 20 18 17 14 14 15 14 13 11 7 14 16 17 15 15 14 13 12 12 12 14 18 23 17 8 6 6 5 6 7 8 9 8 8 9 10
15 26 30 31 29 27 25 23 21 18 16 16 18 16 14 12 10 15 19 18 17 15 13 12 10 6 3 9 15 20 21 14 10 8 7 7 8 9 9 9 9 8 6

GFSSE_700_spd_036.txt.gz
Wind_Speed
36 36 34 38 35 33 32 28 25 22 19 19 19 17 16 14 12 12 11 11 11 10 10 9 9 9 9 11 9 6 5 6 6 5 6 7 9 10 12 11 9 6 4
32 33 39 37 35 33 29 26 23 20 19 19 18 16 14 13 11 11 12 11 11 11 11 11 10 10 9 10 12 10 10 10 10 9 8 7 7 8 10 11 7 6 4
36 37 36 35 35 31 28 25 21 19 18 18 17 14 12 11 11 11 12 11 11 10 11 11 11 10 9 10 14 12 11 11 11 8 8 9 8 8 10 10 8 6 4
32 35 35 34 32 29 27 24 20 18 18 17 15 12 12 10 10 10 12 12 12 12 12 12 11 9 8 9 10 13 13 12 12 12 13 10 10 11 11 11 9 6 5
32 33 33 32 30 27 25 22 18 18 18 16 13 12 11 10 10 10 11 11 11 12 11 10 10 9 9 8 8 7 10 11 10 10 12 12 11 12 13 12 8 7 6
31 31 30 30 28 25 23 20 17 18 16 14 13 11 10 10 11 11 10 10 11 11 10 10 11 10 9 8 8 11 9 11 9 8 10 12 13 13 14 13 11 9 9
31 30 29 29 26 23 21 18 17 16 14 12 11 10 10 10 11 10 10 10 10 10 10 10 10 10 8 8 7 5 6 6 8 9 9 11 11 12 11 11 11 10 9
30 30 29 28 25 22 20 18 16 15 13 11 11 11 10 9 10 11 11 10 10 9 9 9 9 8 8 8 6 6 6 4 6 8 7 10 10 11 9 8 7 7 7
29 29 29 27 25 22 20 18 16 14 12 11 11 10 9 9 10 10 10 9 9 8 8 8 9 8 7 6 5 5 7 3 6 7 8 9 9 8 7 6 7 7 7
28 29 29 27 25 22 20 18 16 14 12 11 9 9 8 8 8 8 8 7 7 9 8 7 8 9 10 9 6 6 6 8 7 6 7 9 8 7 6 6 7 7 7
29 28 28 25 24 22 20 18 16 13 11 10 9 9 9 8 6 6 7 8 7 7 7 5 7 7 10 9 6 5 5 6 5 5 6 7 8 7 7 6 6 6 6
28 29 27 26 24 22 20 18 15 13 11 9 10 8 7 7 5 5 7 6 6 6 6 5 5 8 10 6 8 6 4 3 3 4 5 6 6 7 7 5 5 6 6
26 27 27 26 24 22 20 18 15 13 11 8 7 6 5 6 6 5 4 6 6 7 8 7 7 6 9 10 9 2 3 2 3 5 5 5 6 5 6 6 5 5 6
26 26 26 26 24 22 20 18 15 13 10 7 6 4 5 4 2 3 3 4 7 6 5 6 5 7 9 11 7 6 4 4 2 5 7 6 6 5 5 5 5 5 5
25 25 25 25 24 22 20 18 16 13 10 8 6 5 4 3 1 1 3 4 5 5 6 7 6 8 9 9 6 8 6 2 3 3 7 8 7 6 5 5 4 4 4
25 25 25 24 24 22 19 17 14 12 10 8 6 5 4 3 2 2 1 3 5 6 6 6 8 10 9 8 4 7 4 1 2 4 4 9 6 6 6 5 4 5 3
25 25 25 25 24 22 19 17 15 12 10 9 8 7 6 5 2 1 2 5 6 6 4 7 7 7 10 9 6 10 4 2 1 2 4 5 8 6 7 7 7 6 6
26 26 25 25 23 22 19 17 15 13 11 10 9 8 9 6 5 3 1 3 6 6 5 6 8 7 7 6 4 1 2 2 2 1 4 5 7 5 8 8 7 7 8
27 27 27 26 23 21 19 17 16 14 12 10 10 10 10 9 8 5 3 1 3 4 3 3 5 5 5 4 3 2 2 4 13 1 3 4 6 4 5 8 9 9 9
28 28 27 26 24 22 21 19 17 15 13 11 10 10 11 12 10 7 3 2 2 1 1 4 5 7 6 6 6 4 4 5 6 4 1 2 3 2 3 6 8 9 10
30 30 29 28 26 24 22 19 17 15 14 11 10 10 12 11 9 10 4 1 2 4 5 6 7 7 8 6 6 6 6 6 6 5 6 5 2 3 3 4 5 5 6
29 30 30 28 28 25 23 20 18 15 14 13 13 12 11 11 11 11 7 5 5 7 7 9 10 11 10 8 5 7 3 5 4 3 5 4 5 3 3 0 2 4 6
29 29 29 28 28 26 24 23 20 19 18 16 15 13 12 11 11 11 10 9 9 11 10 13 12 11 11 10 6 5 6 4 4 3 4 4 4 4 4 2 2 3 4
26 28 28 28 27 26 25 24 21 18 15 13 13 13 14 14 14 13 13 12 15 16 15 15 12 10 9 11 9 3 7 11 7 1 3 4 3 1 3 4 3 4 3
23 28 28 28 28 27 26 24 22 20 17 16 16 15 16 15 14 14 13 15 20 21 18 17 12 8 8 10 12 11 10 7 6 7 3 1 2 2 2 3 3 4 4
25 25 28 29 28 28 27 26 24 21 18 17 15 15 14 13 13 12 13 19 24 24 21 18 13 8 6 7 10 11 10 8 7 5 3 3 4 7 6 5 5 5 8